Regional Weather Roundup
Issued by NWS Green Bay, WI

Home | Current Version | Previous Version | Text Only | Print | Product List | Glossary On
Versions: 1 2 3 4 5 6 7 8 9 10 11 12 13 14 15 16 17 18 19 20 21 22 23 24 25 26 27 28 29 30 31 32 33 34 35 36 37 38 39 40 41 42 43 44 45 46 47 48 49 50
000
ASUS43 KGRB 200310
RWRGRB

NORTH-CENTRAL AND NORTHEAST WISCONSIN REGIONAL WEATHER ROUNDUP
NATIONAL WEATHER SERVICE GREEN BAY WI
1000 PM CDT SUN OCT 19 2014

WIZ005-009-010>012-018-019-200400-
NORTH CENTRAL WISCONSIN

CITY           SKY/WX    TMP DP  RH WIND       PRES   REMARKS
IRONWOOD       CLOUDY    50  45  81 W3        29.72R
MANITOWISH WTR CLOUDY    41  41 100 CALM      29.75S
ARBOR VITAE    PTCLDY    42  39  91 CALM      29.75F
EAGLE RIVER    CLOUDY    43  43 100 CALM      29.75S
LAND O LAKES   CLOUDY    46  43  87 CALM      29.75F
RHINELANDER    CLEAR     43  41  93 W3        29.76F
PHILLIPS       PTCLDY    39  37  94 CALM      29.75F
ANTIGO         CLEAR     39  39  99 CALM      29.78S
TOMAHAWK       CLEAR     37  36  95 CALM      29.77F
MERRILL        CLEAR     38  38 100 CALM      29.76F FOG
$$

WIZ013-073-200400-
NORTHEAST WISCONSIN

CITY           SKY/WX    TMP DP  RH WIND       PRES   REMARKS
IRON MOUNTAIN  CLOUDY    44  42  93 SE3       29.73F
MARINETTE      MOCLDY    50  41  71 SW5       29.77F
OCONTO         CLOUDY    51  44  77 SW5       29.78F
$$

WIZ017-030-035>037-045-200400-
CENTRAL WISCONSIN

CITY           SKY/WX    TMP DP  RH WIND       PRES   REMARKS
MEDFORD        CLEAR     41  40  96 S3        29.77F
WAUSAU         CLEAR     46  42  86 CALM      29.76F
MOSINEE        CLEAR     45  43  93 S3        29.78F
MARSHFIELD     CLEAR     49  43  80 SW6       29.77F
WISC RAPIDS    CLEAR     49  43  80 SW5       29.80S
STEVENS POINT  CLEAR     45  41  87 SW6       29.79S
WAUPACA        PTCLDY    51  44  78 S6        29.79F
SHAWANO        PTCLDY    50  44  78 CALM      29.78F
CLINTONVILLE   MOCLDY    46  43  87 CALM      29.78F
$$

WIZ038-039-048-051-200400-
FOX VALLEY

CITY           SKY/WX    TMP DP  RH WIND       PRES   REMARKS
NWS GREEN BAY  PTCLDY    50  44  80 S6        29.79F
APPLETON       MOCLDY    48  43  81 S10       29.80F
OSHKOSH        PTCLDY    51  43  74 S12       29.80F
FOND DU LAC    MOCLDY    52  41  66 SW13      29.82F
$$

WIZ022-050-052-200400-
EAST CENTRAL WISCONSIN

CITY           SKY/WX    TMP DP  RH WIND       PRES   REMARKS
STURGEON BAY   CLOUDY    50  41  71 S9        29.79F
MANITOWOC      CLOUDY    52  45  77 S7        29.82F
SHEBOYGAN      LGT RAIN  51  44  77 SW12      29.83F
$$

LMZ563-521-522-541>543-200400-
LAKESHORE

STATION/POSITION TIME  TEMP    WIND        PRES    VSBY  WAVE
                       AIR SEA DIR/SP/G                  HT/PER
                 (UTC) (F)     (DEG/KT/KT) (MB)    (MI)  (FT/S)
SHEBOYGAN LKSHOR 0300   52 50  200/ 10/ 13 1010.8F
KEWAUNEE LKSHORE 0300   50     190/  6/  8 1008.7F
NORTHPORT PIER   0300   51     160/  3/  9 1008.5F
N MID LAKE BUOY  0300   52 52  210/ 19/ 23 1008.5F         7/ 8
CHAMBERS ISLAND  0300   53     180/  6/ 13 1008.8F
MENOMINEE LKSHOR 0300   52     200/  7/ 10 1008.9F
$$


USA.gov is the U.S. government's official web portal to all federal, state and local government web resources and services.